Weather in Bakharevo

Russia / Tambov Oblast     52°12′27″N   41°38′14″E
temp.,
°C
wind,
m/s
gust,
m/s
humid.,
%
clouds,
%
prec.,
mm/h
press.,
hPa
HPBL,
m
25 june, sat
sat2500:00+15nne410905 0.0 1012184
03:00+14ne48945 0.0 1013145
06:00+16ne378649 0.0 1014194
09:00+21ne56663 0.0 1015643
12:00+24ne57552 0.0 10151668
15:00+25ne57527 0.0 10152008
18:00+23ne58655 0.0 1015708
21:00+18ne34802 0.0 101757
26 june, sun
sun2600:00+17ne35810 0.0 101875
03:00+17nne378092 0.0 1018134
06:00+18nne39840 0.0 1019230
09:00+23ne57640 0.0 1020694
12:00+25ne610530 0.0 10201787
15:00+26ne69520 0.0 10192012
18:00+24ne57640 0.0 1019884
21:00+19ene22840 0.0 102020
27 june, mon
mon2700:00+16e33880 0.0 102238
03:00+15e22860 0.0 102221
06:00+17se22770 0.0 102387
09:00+22s10550 0.0 1022481
12:00+26wnw11470 0.0 1021947
15:00+27nw23510 0.0 10201247
18:00+27w24650 0.0 1018972
21:00+21w3385100 0.7 101839
28 june, tue
tue2800:00+20wnw35903 0.3 101768
03:00+19nnw47940 0.3 1016120
06:00+19n49870 0.0 1017263
09:00+23ne68710 0.0 1017761
12:00+23ne786869 0.1 10181286
15:00+23ne67480 0.1 10191520
18:00+21ne56590 0.0 10191150
21:00+15ene34780 0.0 102060
29 june, wed
wed2900:00+12ene48830 0.0 1022165
03:00+10ne37840 0.0 1022124
06:00+12ne47760 0.0 1023232
09:00+17ne57510 0.0 10231162
12:00+19ne56445 0.0 10231932
15:00+20ne56428 0.0 10222248
18:00+19ne45535 0.0 10221655
21:00+14ne33712 0.0 102325